User: anonymous   Login
Location: Unspecified
(0.0000°N, 0.0000°E)
Time: 16:55:49
(UTC+02:00)
Language:

Cosmos 1515 Rocket - Orbit

View from above orbital plane
View from above orbital plane
View from above satellite
View from above satellite

Ground track
Ground track

The orbit data is extracted from the following two-line orbital elements,

1 14552U 83122B   16237.88592704  .00000099  00000-0  90983-5 0  9997
2 14552  82.5269 353.9994 0018583  59.1409 301.1631 14.83351258765256
Epoch (UTC): 24 August 2016 21:15:44
Eccentricity: 0.0018583
inclination: 82.5269°
perigee height: 606 km
apogee height: 632 km
right ascension of ascending node: 353.9994°
argument of perigee: 59.1409°
revolutions per day: 14.83351258
mean anomaly at epoch: 301.1631°
orbit number at epoch: 76525

The dashed part of the orbit path shows where the satellite is in the earth's shadow,  

DLR